AFL3500 UNNT-ULLI

Flight info

Callsign AFL3500
Flight time N/A
Altitude 36000
Route OGAMA1K OGAMA A308 OSNAB R362 KZ A575 UNKIS P982 GIKES N987 POBEM L260 KUKSA P979 UNEBO T927 BLZ L259 PRIBI P979 BEPOL BEPOL1B
Aircraft A321/M-SDE3FGHIRWY/LB1

Departure

Time N/A
Airport Novosibirsk Tolmachevo Airport (UNNT)

Arrival

Time 2026-05-06 17:30
Airport Pulkovo Airport (ULLI)
Time Latitude Longitude Altitude Speed Heading
2026-05-06 14:16 57.85631 70.20325 35897 ft 413 kts 286°
2026-05-06 14:16 57.86439 70.15144 35898 ft 413 kts 286°
2026-05-06 14:17 57.88057 70.04779 35892 ft 413 kts 286°
2026-05-06 14:17 57.89669 69.94416 35898 ft 413 kts 285°
2026-05-06 14:18 57.91243 69.84096 35887 ft 413 kts 285°
2026-05-06 14:18 57.92845 69.73711 35889 ft 413 kts 285°
2026-05-06 14:19 57.94438 69.63324 35889 ft 413 kts 285°
2026-05-06 14:19 57.96007 69.52937 35900 ft 412 kts 285°
2026-05-06 14:20 57.97570 69.42558 35894 ft 411 kts 285°
2026-05-06 14:20 57.99116 69.32178 35884 ft 411 kts 285°
2026-05-06 14:21 58.00667 69.21803 35883 ft 411 kts 285°
2026-05-06 14:21 58.02203 69.11435 35879 ft 411 kts 284°
2026-05-06 14:22 58.03713 69.01099 35881 ft 411 kts 284°
2026-05-06 14:22 58.05227 68.90698 35881 ft 411 kts 284°
2026-05-06 14:23 58.06733 68.80275 35876 ft 411 kts 284°
2026-05-06 14:23 58.08234 68.69848 35876 ft 411 kts 284°
2026-05-06 14:24 58.09739 68.59427 35888 ft 411 kts 284°
2026-05-06 14:24 58.11229 68.49004 35886 ft 410 kts 284°
2026-05-06 14:25 58.12684 68.38575 35878 ft 410 kts 283°
2026-05-06 14:25 58.14140 68.28202 35873 ft 409 kts 284°
2026-05-06 14:26 58.15645 68.17804 35872 ft 409 kts 284°
2026-05-06 14:26 58.17190 68.07427 35869 ft 409 kts 284°
2026-05-06 14:27 58.18716 67.97098 35869 ft 409 kts 284°
2026-05-06 14:27 58.20223 67.86686 35857 ft 409 kts 284°
2026-05-06 14:28 58.21713 67.76266 35858 ft 409 kts 284°
2026-05-06 14:28 58.23186 67.65906 35877 ft 409 kts 283°
2026-05-06 14:29 58.24675 67.55495 35872 ft 408 kts 283°
2026-05-06 14:29 58.26156 67.45100 35868 ft 408 kts 283°
2026-05-06 14:30 58.27611 67.34685 35863 ft 408 kts 283°
2026-05-06 14:30 58.29058 67.24270 35861 ft 407 kts 283°
2026-05-06 14:31 58.30503 67.13854 35859 ft 407 kts 283°
2026-05-06 14:31 58.31948 67.03418 35848 ft 408 kts 283°
2026-05-06 14:32 58.33377 66.92984 35848 ft 408 kts 283°
2026-05-06 14:32 58.34790 66.82528 35850 ft 408 kts 283°
2026-05-06 14:33 58.36193 66.72074 35872 ft 408 kts 283°
2026-05-06 14:33 58.37596 66.61597 35858 ft 407 kts 282°
2026-05-06 14:34 58.38977 66.51203 35852 ft 407 kts 282°
2026-05-06 14:34 58.40353 66.40763 35850 ft 407 kts 282°
2026-05-06 14:35 58.41722 66.30289 35839 ft 407 kts 282°
2026-05-06 14:35 58.43091 66.19804 35837 ft 407 kts 282°
2026-05-06 14:36 58.44451 66.09324 35839 ft 406 kts 282°
2026-05-06 14:36 58.45795 65.98900 35841 ft 406 kts 282°
2026-05-06 14:37 58.47143 65.88403 35856 ft 406 kts 282°
2026-05-06 14:37 58.48478 65.77882 35848 ft 407 kts 282°
2026-05-06 14:38 58.49801 65.67384 35842 ft 407 kts 282°
2026-05-06 14:38 58.51118 65.56832 35830 ft 407 kts 282°
2026-05-06 14:39 58.52414 65.46344 35822 ft 408 kts 282°
2026-05-06 14:39 58.53731 65.35739 35825 ft 408 kts 282°
2026-05-06 14:40 58.55028 65.25184 35829 ft 408 kts 281°
2026-05-06 14:40 58.56310 65.14610 35832 ft 408 kts 281°
2026-05-06 14:41 58.57582 65.04045 35830 ft 409 kts 281°
2026-05-06 14:41 58.58857 64.93394 35860 ft 409 kts 281°
2026-05-06 14:42 58.60109 64.82765 35844 ft 409 kts 281°
2026-05-06 14:42 58.61370 64.72115 35826 ft 410 kts 281°
2026-05-06 14:43 58.62623 64.61416 35824 ft 410 kts 281°
2026-05-06 14:43 58.63750 64.51679 35827 ft 410 kts 281°
2026-05-06 14:44 58.64982 64.40971 35826 ft 411 kts 281°
2026-05-06 14:45 58.66805 64.24957 35822 ft 411 kts 281°
2026-05-06 14:45 58.68017 64.14220 35824 ft 411 kts 281°
2026-05-06 14:46 58.69223 64.03466 35822 ft 411 kts 281°
2026-05-06 14:46 58.70412 63.92711 35824 ft 411 kts 281°
2026-05-06 14:47 58.71595 63.81942 35818 ft 411 kts 281°
2026-05-06 14:47 58.72981 63.71255 35818 ft 412 kts 283°
2026-05-06 14:48 58.74482 63.60608 35814 ft 412 kts 283°
2026-05-06 14:48 58.75939 63.50005 35810 ft 412 kts 283°
2026-05-06 14:49 58.77344 63.39301 35805 ft 412 kts 282°
2026-05-06 14:49 58.78724 63.28569 35800 ft 412 kts 282°
2026-05-06 14:50 58.80098 63.17912 35802 ft 412 kts 282°
2026-05-06 14:50 58.81488 63.07185 35830 ft 412 kts 283°
2026-05-06 14:51 58.82861 62.96453 35814 ft 411 kts 282°
2026-05-06 14:51 58.84219 62.85718 35802 ft 411 kts 282°
2026-05-06 14:52 58.85559 62.75064 35800 ft 410 kts 282°
2026-05-06 14:52 58.86904 62.64330 35798 ft 410 kts 282°
2026-05-06 14:53 58.88235 62.53573 35790 ft 410 kts 282°
2026-05-06 14:53 58.89543 62.42908 35786 ft 410 kts 282°
2026-05-06 14:54 58.90859 62.32161 35770 ft 410 kts 282°
2026-05-06 14:54 58.92160 62.21411 35779 ft 410 kts 282°
2026-05-06 14:55 58.93460 62.10632 35784 ft 411 kts 282°
2026-05-06 14:55 58.94752 61.99848 35782 ft 411 kts 281°
2026-05-06 14:56 58.96024 61.89116 35780 ft 411 kts 281°
2026-05-06 14:56 58.97295 61.78299 35782 ft 411 kts 281°
2026-05-06 14:57 58.98553 61.67475 35781 ft 411 kts 281°
2026-05-06 14:57 59.00408 61.56992 35781 ft 413 kts 293°
2026-05-06 14:58 59.02893 61.46975 35772 ft 414 kts 293°
2026-05-06 14:58 59.05376 61.36878 35758 ft 414 kts 293°
2026-05-06 14:59 59.07436 61.28464 35758 ft 415 kts 292°
2026-05-06 14:59 59.09913 61.18305 35762 ft 415 kts 292°
2026-05-06 15:00 59.12380 61.08124 35766 ft 416 kts 292°
2026-05-06 15:00 59.14838 60.97914 35764 ft 416 kts 292°
2026-05-06 15:01 59.17293 60.87696 35769 ft 416 kts 292°
2026-05-06 15:01 59.19717 60.77539 35771 ft 416 kts 292°
2026-05-06 15:02 59.22157 60.67284 35785 ft 416 kts 292°
2026-05-06 15:02 59.24590 60.57004 35781 ft 417 kts 292°
2026-05-06 15:03 59.27019 60.46709 35770 ft 417 kts 292°
2026-05-06 15:03 59.29427 60.36457 35773 ft 417 kts 292°
2026-05-06 15:04 59.31844 60.26122 35775 ft 417 kts 292°
2026-05-06 15:04 59.34249 60.15774 35770 ft 417 kts 292°
2026-05-06 15:05 59.36650 60.05401 35801 ft 417 kts 292°
2026-05-06 15:05 59.39017 59.95096 35795 ft 417 kts 292°
2026-05-06 15:06 59.41395 59.84706 35783 ft 416 kts 292°
2026-05-06 15:06 59.43768 59.74317 35780 ft 416 kts 292°
2026-05-06 15:07 59.46122 59.63920 35775 ft 416 kts 291°
2026-05-06 15:07 59.48470 59.53496 35778 ft 416 kts 291°
2026-05-06 15:08 59.50799 59.43138 35776 ft 416 kts 291°
2026-05-06 15:08 59.53126 59.32702 35786 ft 416 kts 291°
2026-05-06 15:09 59.55442 59.22257 35779 ft 415 kts 291°
2026-05-06 15:09 59.57759 59.11808 35789 ft 415 kts 291°
2026-05-06 15:10 59.59350 59.01002 35783 ft 412 kts 282°
2026-05-06 15:10 59.60667 58.89983 35785 ft 412 kts 282°
2026-05-06 15:11 59.61969 58.78955 35780 ft 412 kts 282°
2026-05-06 15:11 59.63259 58.67918 35775 ft 412 kts 282°
2026-05-06 15:12 59.64539 58.56925 35809 ft 412 kts 282°
2026-05-06 15:12 59.65809 58.45917 35794 ft 411 kts 281°
2026-05-06 15:13 59.67070 58.34863 35756 ft 410 kts 281°
2026-05-06 15:13 59.68316 58.23909 35760 ft 410 kts 281°
2026-05-06 15:14 59.69558 58.12936 35762 ft 410 kts 281°
2026-05-06 15:14 59.70796 58.01871 35754 ft 410 kts 281°
2026-05-06 15:15 59.72016 57.90838 35755 ft 410 kts 281°
2026-05-06 15:15 59.73228 57.79857 35753 ft 410 kts 281°
2026-05-06 15:16 59.74447 57.68825 35787 ft 409 kts 281°
2026-05-06 15:16 59.75648 57.57829 35767 ft 409 kts 281°
2026-05-06 15:17 59.76844 57.46744 35748 ft 408 kts 281°
2026-05-06 15:17 59.78015 57.35771 35754 ft 408 kts 281°
2026-05-06 15:18 59.79193 57.24744 35741 ft 407 kts 281°
2026-05-06 15:18 59.80351 57.13770 35741 ft 407 kts 280°
2026-05-06 15:19 59.81501 57.02766 35742 ft 407 kts 280°
2026-05-06 15:19 59.82646 56.91759 35731 ft 407 kts 280°
2026-05-06 15:20 59.83781 56.80744 35755 ft 406 kts 280°
2026-05-06 15:20 59.84900 56.69742 35746 ft 405 kts 280°
2026-05-06 15:21 59.85998 56.58770 35738 ft 404 kts 280°
2026-05-06 15:21 59.87089 56.47813 35715 ft 404 kts 280°
2026-05-06 15:22 59.88172 56.36877 35716 ft 404 kts 279°
2026-05-06 15:22 59.89262 56.25858 35711 ft 404 kts 279°
2026-05-06 15:23 59.90335 56.14896 35711 ft 404 kts 279°
2026-05-06 15:23 59.91397 56.03889 35712 ft 404 kts 279°
2026-05-06 15:24 59.92438 55.92947 35743 ft 403 kts 279°
2026-05-06 15:24 59.93469 55.81980 35732 ft 402 kts 279°
2026-05-06 15:25 59.94503 55.70976 35720 ft 402 kts 279°
2026-05-06 15:25 59.95513 55.60088 35698 ft 401 kts 278°
2026-05-06 15:26 59.96525 55.49102 35696 ft 401 kts 278°
2026-05-06 15:26 59.97678 55.38201 35694 ft 403 kts 286°
2026-05-06 15:27 59.99506 55.27617 35695 ft 403 kts 286°
2026-05-06 15:27 60.01339 55.17046 35694 ft 403 kts 286°
2026-05-06 15:28 60.03155 55.06463 35725 ft 403 kts 285°
2026-05-06 15:28 60.04952 54.95912 35706 ft 402 kts 285°
2026-05-06 15:29 60.06746 54.85298 35701 ft 402 kts 285°
2026-05-06 15:29 60.08532 54.74688 35697 ft 402 kts 285°
2026-05-06 15:30 60.10310 54.64076 35689 ft 401 kts 285°
2026-05-06 15:30 60.12081 54.53455 35691 ft 401 kts 285°
2026-05-06 15:31 60.13820 54.42890 35668 ft 402 kts 285°
2026-05-06 15:31 60.15562 54.32233 35696 ft 402 kts 284°
2026-05-06 15:32 60.18171 54.16210 35690 ft 402 kts 284°
2026-05-06 15:32 60.19900 54.05532 35690 ft 402 kts 284°
2026-05-06 15:33 60.21625 53.94839 35688 ft 401 kts 284°
2026-05-06 15:33 60.23329 53.84216 35685 ft 401 kts 284°
2026-05-06 15:34 60.25042 53.73503 35683 ft 401 kts 284°
2026-05-06 15:34 60.26731 53.62791 35690 ft 401 kts 284°
2026-05-06 15:35 60.28408 53.52063 35689 ft 401 kts 284°
2026-05-06 15:35 60.29857 53.41248 35684 ft 398 kts 277°
2026-05-06 15:36 60.30778 53.30301 35683 ft 398 kts 277°
2026-05-06 15:36 60.31700 53.19290 35689 ft 398 kts 277°
2026-05-06 15:37 60.32616 53.08264 35692 ft 398 kts 277°
2026-05-06 15:37 60.33514 52.97234 35690 ft 398 kts 276°
2026-05-06 15:38 60.34400 52.86190 35690 ft 398 kts 276°
2026-05-06 15:38 60.35280 52.75200 35727 ft 398 kts 276°
2026-05-06 15:39 60.36146 52.64156 35713 ft 398 kts 276°
2026-05-06 15:39 60.37014 52.53101 35707 ft 398 kts 276°
2026-05-06 15:40 60.37871 52.42043 35689 ft 398 kts 276°
2026-05-06 15:40 60.38718 52.30990 35687 ft 398 kts 276°
2026-05-06 15:41 60.39559 52.19953 35685 ft 398 kts 275°
2026-05-06 15:41 60.40383 52.08864 35685 ft 398 kts 275°
2026-05-06 15:42 60.41199 51.97767 35690 ft 399 kts 275°
2026-05-06 15:42 60.42008 51.86670 35724 ft 399 kts 275°
2026-05-06 15:43 60.42818 51.75552 35708 ft 399 kts 275°
2026-05-06 15:43 60.43609 51.64511 35699 ft 399 kts 275°
2026-05-06 15:44 60.44382 51.53391 35701 ft 399 kts 275°
2026-05-06 15:44 60.45152 51.42232 35686 ft 399 kts 275°
2026-05-06 15:45 60.45913 51.31164 35692 ft 399 kts 275°
2026-05-06 15:45 60.46662 51.20032 35698 ft 399 kts 275°
2026-05-06 15:46 60.47052 51.08832 35700 ft 396 kts 268°
2026-05-06 15:46 60.47040 50.97674 35701 ft 396 kts 268°
2026-05-06 15:47 60.47030 50.86538 35729 ft 397 kts 268°
2026-05-06 15:47 60.47002 50.75343 35720 ft 397 kts 268°
2026-05-06 15:48 60.46966 50.64164 35707 ft 398 kts 268°
2026-05-06 15:48 60.46931 50.54799 35710 ft 398 kts 268°
2026-05-06 15:49 60.46876 50.43570 35701 ft 398 kts 268°
2026-05-06 15:49 60.46803 50.30513 35708 ft 398 kts 268°
2026-05-06 15:50 60.46741 50.21096 35712 ft 399 kts 268°
2026-05-06 15:50 60.46660 50.09932 35723 ft 399 kts 268°
2026-05-06 15:51 60.46571 49.98700 35727 ft 399 kts 268°
2026-05-06 15:51 60.46471 49.87464 35768 ft 399 kts 268°
2026-05-06 15:52 60.46364 49.76222 35739 ft 398 kts 267°
2026-05-06 15:52 60.46246 49.65011 35716 ft 398 kts 268°
2026-05-06 15:53 60.46117 49.53850 35720 ft 398 kts 267°
2026-05-06 15:53 60.45971 49.42623 35733 ft 399 kts 267°
2026-05-06 15:54 60.45825 49.31366 35740 ft 399 kts 267°
2026-05-06 15:54 60.45669 49.20123 35749 ft 399 kts 267°
2026-05-06 15:55 60.45502 49.08876 35760 ft 399 kts 267°
2026-05-06 15:55 60.45328 48.97670 35760 ft 399 kts 267°
2026-05-06 15:56 60.45144 48.86411 35764 ft 399 kts 267°
2026-05-06 15:56 60.44942 48.75157 35792 ft 399 kts 266°
2026-05-06 15:57 60.44728 48.64023 35792 ft 398 kts 266°
2026-05-06 15:57 60.44514 48.52830 35788 ft 397 kts 266°
2026-05-06 15:58 60.44294 48.41651 35796 ft 397 kts 266°
2026-05-06 15:58 60.44061 48.30490 35797 ft 396 kts 266°
2026-05-06 15:59 60.43826 48.19340 35795 ft 396 kts 266°
2026-05-06 15:59 60.43579 48.08193 35799 ft 396 kts 266°
2026-05-06 16:00 60.43319 47.97120 35799 ft 396 kts 266°
2026-05-06 16:00 60.43042 47.85986 35775 ft 396 kts 266°
2026-05-06 16:01 60.42765 47.74827 35782 ft 397 kts 266°
2026-05-06 16:01 60.42482 47.63674 35816 ft 396 kts 265°
2026-05-06 16:02 60.42189 47.52539 35815 ft 396 kts 265°
2026-05-06 16:02 60.41882 47.41486 35817 ft 395 kts 265°
2026-05-06 16:03 60.41567 47.30390 35817 ft 395 kts 265°
2026-05-06 16:03 60.41248 47.19273 35815 ft 395 kts 265°
2026-05-06 16:04 60.40917 47.08192 35804 ft 395 kts 265°
2026-05-06 16:04 60.40573 46.97166 35807 ft 395 kts 265°
2026-05-06 16:05 60.40218 46.86017 35810 ft 395 kts 265°
2026-05-06 16:05 60.39857 46.74990 35812 ft 395 kts 265°
2026-05-06 16:06 60.39488 46.63960 35854 ft 395 kts 264°
2026-05-06 16:06 60.39108 46.52875 35844 ft 394 kts 264°
2026-05-06 16:07 60.38719 46.41793 35842 ft 393 kts 264°
2026-05-06 16:07 60.38322 46.30795 35840 ft 393 kts 264°
2026-05-06 16:08 60.37915 46.19797 35832 ft 393 kts 264°
2026-05-06 16:08 60.37504 46.08766 35836 ft 393 kts 264°
2026-05-06 16:09 60.37083 45.97779 35840 ft 392 kts 264°
2026-05-06 16:09 60.36651 45.86850 35841 ft 392 kts 264°
2026-05-06 16:10 60.36209 45.75842 35844 ft 392 kts 264°
2026-05-06 16:10 60.35834 45.66728 35850 ft 392 kts 264°
2026-05-06 16:11 60.35295 45.53886 35855 ft 390 kts 264°
2026-05-06 16:11 60.34843 45.43020 35849 ft 390 kts 265°
2026-05-06 16:12 60.34521 45.32096 35830 ft 390 kts 266°
2026-05-06 16:12 60.34242 45.21154 35838 ft 390 kts 266°
2026-05-06 16:13 60.33932 45.10214 35847 ft 390 kts 265°
2026-05-06 16:13 60.33588 44.99311 35854 ft 390 kts 265°
2026-05-06 16:14 60.33229 44.88418 35852 ft 390 kts 265°
2026-05-06 16:14 60.32870 44.77528 35857 ft 390 kts 265°
2026-05-06 16:15 60.32502 44.66580 35856 ft 390 kts 265°
2026-05-06 16:15 60.32132 44.55642 35897 ft 390 kts 265°
2026-05-06 16:16 60.31749 44.44769 35888 ft 390 kts 265°
2026-05-06 16:16 60.31359 44.33867 35878 ft 390 kts 265°
2026-05-06 16:17 60.30950 44.22939 35878 ft 390 kts 265°
2026-05-06 16:17 60.30531 44.12024 35875 ft 390 kts 264°
2026-05-06 16:18 60.30104 44.01105 35875 ft 390 kts 264°
2026-05-06 16:18 60.29676 43.90255 35876 ft 390 kts 264°
2026-05-06 16:19 60.29239 43.79331 35875 ft 390 kts 264°
2026-05-06 16:19 60.28792 43.68420 35877 ft 390 kts 264°
2026-05-06 16:20 60.28337 43.57506 35855 ft 390 kts 264°
2026-05-06 16:20 60.27870 43.46584 35871 ft 390 kts 264°
2026-05-06 16:21 60.27394 43.35761 35878 ft 390 kts 264°
2026-05-06 16:21 60.26908 43.24853 35886 ft 391 kts 264°
2026-05-06 16:22 60.26415 43.13947 35884 ft 391 kts 264°
2026-05-06 16:22 60.25910 43.03037 35893 ft 391 kts 264°
2026-05-06 16:23 60.25391 42.92132 35899 ft 391 kts 264°
2026-05-06 16:23 60.24873 42.81287 35902 ft 391 kts 264°
2026-05-06 16:24 60.24349 42.70356 35874 ft 391 kts 264°
2026-05-06 16:24 60.23816 42.59463 35891 ft 391 kts 264°
2026-05-06 16:25 60.23269 42.48656 35931 ft 390 kts 264°
2026-05-06 16:25 60.22715 42.37813 35924 ft 389 kts 264°
2026-05-06 16:26 60.22153 42.26982 35921 ft 389 kts 264°
2026-05-06 16:26 60.21585 42.16157 35920 ft 388 kts 264°
2026-05-06 16:27 60.20997 42.05357 35923 ft 388 kts 264°
2026-05-06 16:27 60.20404 41.94584 35917 ft 388 kts 264°
2026-05-06 16:28 60.19815 41.83894 35888 ft 387 kts 264°
2026-05-06 16:28 60.19209 41.73145 35903 ft 386 kts 264°
2026-05-06 16:29 60.18592 41.62400 35915 ft 386 kts 264°
2026-05-06 16:29 60.17978 41.51741 35972 ft 386 kts 264°
2026-05-06 16:30 60.17447 41.42775 35947 ft 385 kts 263°
2026-05-06 16:30 60.16796 41.30341 35931 ft 385 kts 266°
2026-05-06 16:31 60.16523 41.19599 35930 ft 385 kts 267°
2026-05-06 16:31 60.16275 41.08850 35938 ft 385 kts 266°
2026-05-06 16:32 60.15962 40.98102 35938 ft 385 kts 266°
2026-05-06 16:32 60.15605 40.87359 35933 ft 385 kts 266°
2026-05-06 16:33 60.15243 40.76698 35939 ft 384 kts 266°
2026-05-06 16:34 60.14693 40.60623 35955 ft 384 kts 266°
2026-05-06 16:34 60.14321 40.49909 35959 ft 383 kts 266°
2026-05-06 16:35 60.13940 40.39250 35955 ft 383 kts 266°
2026-05-06 16:35 60.13553 40.28628 35960 ft 383 kts 266°
2026-05-06 16:36 60.13155 40.18017 35958 ft 383 kts 266°
2026-05-06 16:36 60.12740 40.07323 35956 ft 383 kts 266°
2026-05-06 16:37 60.12326 39.96724 35918 ft 382 kts 266°
2026-05-06 16:37 60.11913 39.86112 35933 ft 382 kts 266°
2026-05-06 16:38 60.11481 39.75479 35941 ft 382 kts 266°
2026-05-06 16:38 60.11032 39.64823 35948 ft 383 kts 266°
2026-05-06 16:39 60.10578 39.54252 35984 ft 382 kts 266°
2026-05-06 16:39 60.10122 39.43624 35976 ft 381 kts 266°
2026-05-06 16:40 60.09659 39.33060 35980 ft 381 kts 266°
2026-05-06 16:40 60.09187 39.22495 35970 ft 381 kts 265°
2026-05-06 16:41 60.08707 39.11977 35975 ft 380 kts 265°
2026-05-06 16:41 60.08220 39.01436 35922 ft 380 kts 265°
2026-05-06 16:42 60.07723 38.90895 35929 ft 381 kts 265°
2026-05-06 16:42 60.07212 38.80309 35938 ft 381 kts 265°
2026-05-06 16:43 60.06695 38.69772 35973 ft 381 kts 265°
2026-05-06 16:43 60.06171 38.59231 35974 ft 381 kts 265°
2026-05-06 16:44 60.05724 38.50395 35967 ft 381 kts 265°
2026-05-06 16:44 60.05182 38.39818 35961 ft 381 kts 265°
2026-05-06 16:45 60.04545 38.27514 35956 ft 381 kts 265°
2026-05-06 16:45 60.04082 38.18731 35963 ft 381 kts 265°
2026-05-06 16:46 60.03520 38.08183 35923 ft 381 kts 265°
2026-05-06 16:46 60.02948 37.97685 35933 ft 382 kts 265°
2026-05-06 16:47 60.02361 37.87120 35943 ft 382 kts 264°
2026-05-06 16:47 60.01806 37.76617 35967 ft 382 kts 269°
2026-05-06 16:48 60.02240 37.66098 35969 ft 379 kts 275°
2026-05-06 16:48 60.02805 37.55608 35979 ft 379 kts 275°
2026-05-06 16:49 60.03342 37.45125 35969 ft 379 kts 275°
2026-05-06 16:49 60.03885 37.34647 35968 ft 378 kts 275°
2026-05-06 16:50 60.04421 37.24172 35976 ft 378 kts 275°
2026-05-06 16:50 60.04942 37.13749 35975 ft 378 kts 275°
2026-05-06 16:51 60.05453 37.03283 35976 ft 378 kts 275°
2026-05-06 16:51 60.05964 36.92806 35980 ft 378 kts 275°
2026-05-06 16:52 60.06469 36.82317 35982 ft 378 kts 275°
2026-05-06 16:52 60.06959 36.71851 35992 ft 377 kts 274°
2026-05-06 16:53 60.07435 36.61446 35998 ft 377 kts 274°
2026-05-06 16:53 60.07908 36.50975 35997 ft 377 kts 274°
2026-05-06 16:54 60.08378 36.40504 35995 ft 377 kts 274°
2026-05-06 16:54 60.08838 36.30032 36005 ft 377 kts 274°
2026-05-06 16:55 60.09291 36.19557 36031 ft 377 kts 274°
2026-05-06 16:55 60.09727 36.09098 36024 ft 376 kts 274°
2026-05-06 16:56 60.10156 35.98637 36023 ft 376 kts 274°
2026-05-06 16:56 60.10579 35.88252 36018 ft 376 kts 274°
2026-05-06 16:57 60.10993 35.77799 36017 ft 375 kts 274°
2026-05-06 16:57 60.11398 35.67366 35974 ft 376 kts 273°
2026-05-06 16:58 60.11794 35.56907 35970 ft 376 kts 272°
2026-05-06 16:58 60.12181 35.46488 35981 ft 377 kts 272°
2026-05-06 16:59 60.12558 35.35988 36014 ft 377 kts 272°
2026-05-06 16:59 60.12926 35.25483 36012 ft 378 kts 272°
2026-05-06 17:00 60.13295 35.14965 36010 ft 378 kts 272°
2026-05-06 17:00 60.13668 35.04450 36012 ft 378 kts 272°
2026-05-06 17:01 60.14019 34.93976 36015 ft 378 kts 272°
2026-05-06 17:01 60.14362 34.83443 36012 ft 378 kts 272°
2026-05-06 17:02 60.14693 34.72923 36011 ft 378 kts 272°
2026-05-06 17:02 60.15019 34.62388 36014 ft 378 kts 272°
2026-05-06 17:03 60.15332 34.51929 36016 ft 378 kts 272°
2026-05-06 17:03 60.15643 34.41397 36016 ft 378 kts 271°
2026-05-06 17:04 60.15939 34.30856 36013 ft 378 kts 271°
2026-05-06 17:04 60.16233 34.20314 36012 ft 378 kts 271°
2026-05-06 17:05 60.16517 34.09843 36014 ft 378 kts 271°
2026-05-06 17:05 60.16657 34.04563 35596 ft 379 kts 271°
2026-05-06 17:05 60.16793 33.99269 34989 ft 378 kts 271°
2026-05-06 17:05 60.16926 33.93998 34338 ft 378 kts 271°
2026-05-06 17:06 60.17057 33.88728 33728 ft 376 kts 271°
2026-05-06 17:06 60.17185 33.83488 32883 ft 377 kts 271°
2026-05-06 17:06 60.17313 33.78235 32188 ft 374 kts 271°
2026-05-06 17:06 60.17440 33.73015 31494 ft 373 kts 271°
2026-05-06 17:07 60.17485 33.67815 30663 ft 374 kts 264°
2026-05-06 17:07 60.16991 33.62645 29615 ft 380 kts 258°
2026-05-06 17:07 60.16402 33.57505 28621 ft 382 kts 258°
2026-05-06 17:07 60.15799 33.52345 28130 ft 375 kts 258°
2026-05-06 17:08 60.15201 33.47292 27633 ft 368 kts 258°
2026-05-06 17:08 60.14609 33.42334 27123 ft 362 kts 258°
2026-05-06 17:08 60.14022 33.37464 26639 ft 356 kts 258°
2026-05-06 17:08 60.13447 33.32667 26159 ft 350 kts 258°
2026-05-06 17:09 60.12884 33.27954 25648 ft 344 kts 257°
2026-05-06 17:09 60.12332 33.23318 25228 ft 338 kts 257°
2026-05-06 17:09 60.11786 33.18756 24788 ft 333 kts 257°
2026-05-06 17:09 60.11248 33.14267 24347 ft 329 kts 257°
2026-05-06 17:10 60.10719 33.09849 23918 ft 324 kts 257°
2026-05-06 17:10 60.10190 33.05477 23466 ft 322 kts 257°
2026-05-06 17:10 60.09660 33.01137 23056 ft 320 kts 257°
2026-05-06 17:10 60.09135 32.96820 22606 ft 317 kts 257°
2026-05-06 17:11 60.08622 32.92596 22212 ft 316 kts 257°
2026-05-06 17:11 60.08101 32.88327 21804 ft 315 kts 257°
2026-05-06 17:11 60.07578 32.84079 21435 ft 314 kts 257°
2026-05-06 17:11 60.07053 32.79841 21054 ft 313 kts 257°
2026-05-06 17:12 60.06529 32.75618 20689 ft 312 kts 257°
2026-05-06 17:12 60.06007 32.71409 20328 ft 311 kts 257°
2026-05-06 17:12 60.05485 32.67210 19958 ft 310 kts 257°
2026-05-06 17:12 60.04964 32.63023 19626 ft 309 kts 257°
2026-05-06 17:13 60.04443 32.58847 19277 ft 309 kts 257°
2026-05-06 17:13 60.03921 32.54692 18931 ft 308 kts 257°
2026-05-06 17:13 60.03396 32.50534 18595 ft 308 kts 257°
2026-05-06 17:13 60.02872 32.46393 18252 ft 307 kts 257°
2026-05-06 17:14 60.02347 32.42248 17871 ft 308 kts 257°
2026-05-06 17:14 60.01821 32.38089 17536 ft 309 kts 257°
2026-05-06 17:14 60.01295 32.33928 17202 ft 308 kts 257°
2026-05-06 17:14 60.00767 32.29770 16859 ft 308 kts 257°
2026-05-06 17:15 60.00238 32.25629 16505 ft 307 kts 257°
2026-05-06 17:15 59.99716 32.21551 16161 ft 306 kts 257°
2026-05-06 17:15 59.99185 32.17429 15803 ft 306 kts 257°
2026-05-06 17:15 59.98654 32.13315 15436 ft 305 kts 257°
2026-05-06 17:16 59.98128 32.09214 15073 ft 304 kts 257°
2026-05-06 17:16 59.97601 32.05125 14702 ft 304 kts 257°
2026-05-06 17:16 59.97073 32.01046 14325 ft 302 kts 257°
2026-05-06 17:16 59.96546 31.96986 13951 ft 302 kts 256°
2026-05-06 17:17 59.96016 31.92932 13534 ft 301 kts 256°
2026-05-06 17:17 59.95481 31.88891 13141 ft 301 kts 256°
2026-05-06 17:17 59.94413 31.80810 12352 ft 301 kts 256°
2026-05-06 17:18 59.93880 31.76782 11959 ft 300 kts 256°
2026-05-06 17:18 59.93348 31.72750 11554 ft 300 kts 256°
2026-05-06 17:18 59.92826 31.68782 11155 ft 300 kts 256°
2026-05-06 17:18 59.92297 31.64779 10806 ft 296 kts 256°
2026-05-06 17:19 59.91778 31.60894 10674 ft 284 kts 256°
2026-05-06 17:19 59.91277 31.57171 10532 ft 273 kts 256°
2026-05-06 17:19 59.90796 31.53576 10318 ft 265 kts 256°
2026-05-06 17:19 59.90325 31.50054 10063 ft 262 kts 256°
2026-05-06 17:20 59.89854 31.46558 9896 ft 261 kts 256°
2026-05-06 17:20 59.89382 31.43064 9761 ft 261 kts 256°
2026-05-06 17:20 59.88909 31.39563 9623 ft 261 kts 256°
2026-05-06 17:20 59.88436 31.36066 9484 ft 261 kts 256°
2026-05-06 17:21 59.87960 31.32569 9355 ft 262 kts 256°
2026-05-06 17:21 59.87484 31.29067 9077 ft 262 kts 256°
2026-05-06 17:21 59.87007 31.25579 8724 ft 261 kts 256°
2026-05-06 17:21 59.86529 31.22105 8359 ft 261 kts 256°
2026-05-06 17:22 59.86058 31.18667 7994 ft 261 kts 256°
2026-05-06 17:22 59.85581 31.15186 7632 ft 261 kts 255°
2026-05-06 17:22 59.85102 31.11703 7266 ft 261 kts 255°
2026-05-06 17:22 59.84621 31.08217 6906 ft 262 kts 255°
2026-05-06 17:23 59.84138 31.04723 6533 ft 262 kts 255°
2026-05-06 17:23 59.83655 31.01222 6149 ft 263 kts 256°
2026-05-06 17:23 59.83170 30.97725 5768 ft 262 kts 255°
2026-05-06 17:23 59.82684 30.94221 5395 ft 263 kts 255°
2026-05-06 17:24 59.82195 30.90721 5030 ft 262 kts 255°
2026-05-06 17:24 59.81705 30.87233 4653 ft 262 kts 255°
2026-05-06 17:24 59.81217 30.83754 4278 ft 261 kts 256°
2026-05-06 17:24 59.80728 30.80279 3909 ft 260 kts 256°
2026-05-06 17:25 59.80229 30.76833 3545 ft 260 kts 252°
2026-05-06 17:25 59.79480 30.73543 3080 ft 262 kts 245°
2026-05-06 17:25 59.78691 30.70349 2912 ft 252 kts 245°
2026-05-06 17:25 59.77933 30.67292 2802 ft 241 kts 245°
2026-05-06 17:26 59.77208 30.64366 2722 ft 229 kts 245°
2026-05-06 17:26 59.76522 30.61597 2609 ft 219 kts 247°
2026-05-06 17:26 59.76124 30.58839 2520 ft 201 kts 267°
2026-05-06 17:26 59.76216 30.56237 2525 ft 175 kts 284°
2026-05-06 17:27 59.76552 30.53995 2496 ft 165 kts 288°
2026-05-06 17:27 59.76871 30.51865 2340 ft 155 kts 288°
2026-05-06 17:27 59.77170 30.49874 2152 ft 150 kts 288°
2026-05-06 17:27 59.77467 30.47908 1949 ft 148 kts 288°
2026-05-06 17:28 59.77762 30.45954 1757 ft 147 kts 288°
2026-05-06 17:28 59.78055 30.44014 1552 ft 146 kts 288°
2026-05-06 17:28 59.78348 30.42070 1345 ft 146 kts 288°
2026-05-06 17:28 59.78640 30.40133 1127 ft 146 kts 288°
2026-05-06 17:29 59.78928 30.38220 922 ft 146 kts 288°
2026-05-06 17:29 59.79219 30.36284 726 ft 146 kts 288°
2026-05-06 17:29 59.79512 30.34355 525 ft 146 kts 287°
2026-05-06 17:29 59.79801 30.32425 319 ft 145 kts 287°
2026-05-06 17:30 59.80081 30.30498 117 ft 145 kts 287°
2026-05-06 17:30 59.80348 30.28734 69 ft 108 kts 286°
2026-05-06 17:30 59.80507 30.27659 81 ft 56 kts 287°
2026-05-06 17:30 59.80590 30.27112 80 ft 38 kts 287°
2026-05-06 17:31 59.80641 30.26768 80 ft 19 kts 277°
2026-05-06 17:31 59.80581 30.26632 81 ft 7 kts 198°
2026-05-06 17:31 59.80569 30.26623 84 ft 0 kts 198°
2026-05-06 17:33 59.80568 30.26623 84 ft 1 kts 198°
2026-05-06 17:33 59.80539 30.26605 81 ft 8 kts 198°
2026-05-06 17:33 59.80464 30.26557 80 ft 14 kts 202°
2026-05-06 17:33 59.80375 30.26458 81 ft 14 kts 192°
2026-05-06 17:34 59.80275 30.26426 81 ft 11 kts 195°
2026-05-06 17:34 59.80210 30.26390 81 ft 10 kts 195°
2026-05-06 17:34 59.80165 30.26396 82 ft 4 kts 130°
2026-05-06 17:34 59.80158 30.26455 85 ft 5 kts 103°
2026-05-06 17:35 59.80150 30.26518 82 ft 5 kts 107°
2026-05-06 17:35 59.80139 30.26587 84 ft 5 kts 106°
2026-05-06 17:35 59.80156 30.26629 84 ft 4 kts 17°
2026-05-06 17:36 59.80184 30.26551 81 ft 4 kts 285°
2026-05-06 17:36 59.80188 30.26520 84 ft 0 kts 286°